Weather History for EGHE - December, 2013

Change the Weather History Date:

Tuesday, December 3, 2013

  Actual Average Record
Temperature  
Mean Temperature 49 °F -  
Max Temperature 50 °F 48 °F 55 °F (1999)
Min Temperature 48 °F 46 °F 35 °F (2010)
Degree Days  
Heating Degree Days 16    
Moisture  
Dew Point 39 °F    
Average Humidity 64    
Maximum Humidity 71    
Minimum Humidity 56    
Precipitation  
Precipitation 0.00 in - - ()
Sea Level Pressure  
Sea Level Pressure 30.41 in    
Wind  
Wind Speed 6 mph ()    
Max Wind Speed 13 mph    
Max Gust Speed -    
Visibility 7.0 miles    
Events      
Averages and records for this station are not official NWS values.
T = Trace of Precipitation, MM = Missing Value Source: Averaged Metar Reports

Daily Weather History Graph

Daily Weather History Graph

Search for Another Location

Airport or City:

Trip Planner

Search our weather history database for the weather conditions in past years. The results will help you decide how hot, cold, wet, or windy it might be!

Date:

Astronomy

Dec. 03, 2013 Rise Set
Actual Time 8:04 AM GMT 4:25 PM GMT
Civil Twilight 7:26 AM GMT 5:03 PM GMT
Nautical Twilight 6:45 AM GMT 5:43 PM GMT
Astronomical Twilight 6:06 AM GMT 6:22 PM GMT
Moon 8:16 AM GMT (12/3) 5:16 PM GMT (12/3)
Length of Visible Light 9h 36m
Length of Day
8h 21m
New Moon, 0% of the Moon is Illuminated
Dec 3
New Moon
Dec 9
First Quarter
Dec 17
Full
Dec 25
Last Quarter
Jan 1
New

Hourly Weather History & Observations

Time (GMT) Temp. Dew Point Humidity Pressure Visibility Wind Dir Wind Speed Gust Speed Precip Events Conditions
12:00 AM 50 °F 41 °F 63% 30.45 in 25 mi ESE 12.7 mph - -   Overcast
3:00 AM 49 °F 41 °F 66% 30.44 in 28 mi ENE 10.4 mph - -   Overcast
6:00 AM 49 °F 40 °F 61% 30.42 in 25 mi NNE 4.6 mph - -   Overcast
8:20 AM 50.0 °F 39.2 °F 66% 30.42 in 6.2 mi South 3.5 mph - N/A   Overcast
8:50 AM 48.2 °F 39.2 °F 71% 30.42 in 6.2 mi SSE 6.9 mph - N/A   Mostly Cloudy
9:00 AM 49 °F 40 °F 62% 30.43 in 31 mi SSE 6.9 mph - -   Overcast
9:50 AM 50.0 °F 39.2 °F 66% 30.42 in 6.2 mi SSE 6.9 mph - N/A   Mostly Cloudy
10:20 AM 50.0 °F 39.2 °F 66% 30.42 in 6.2 mi SE 5.8 mph - N/A   Mostly Cloudy
10:50 AM 50.0 °F 39.2 °F 66% 30.42 in 6.2 mi SE 8.1 mph - N/A   Mostly Cloudy
11:20 AM 50.0 °F 39.2 °F 66% 30.42 in 6.2 mi SE 8.1 mph - N/A   Mostly Cloudy
12:00 PM 50 °F 39 °F 56% 30.42 in 31 mi SSE 6.9 mph - -   Overcast
12:20 PM 50.0 °F 39.2 °F 66% 30.42 in 6.2 mi SSE 6.9 mph - N/A   Mostly Cloudy
1:50 PM 50.0 °F 37.4 °F 62% 30.39 in 6.2 mi South 2.3 mph - N/A   Mostly Cloudy
2:20 PM 50.0 °F 37.4 °F 62% 30.39 in 6.2 mi SSE 2.3 mph - N/A   Mostly Cloudy
2:50 PM 50.0 °F 39.2 °F 66% 30.39 in 6.2 mi South 4.6 mph - N/A   Mostly Cloudy
3:00 PM 49 °F 39 °F 58% 30.40 in 31 mi South 4.6 mph - -   Overcast
3:20 PM 50.0 °F 39.2 °F 66% 30.39 in 6.2 mi SSW 5.8 mph - N/A   Mostly Cloudy
3:50 PM 50.0 °F 39.2 °F 66% 30.39 in 6.2 mi SSW 3.5 mph - N/A   Mostly Cloudy
4:20 PM 50.0 °F 39.2 °F 66% 30.39 in 6.2 mi West 6.9 mph - N/A   Mostly Cloudy
6:00 PM 49 °F 40 °F 61% 30.40 in 18 mi West 3.5 mph - -   Overcast
9:00 PM 50 °F 41 °F 62% 30.40 in 22 mi West 6.9 mph - -   Overcast